Regional Weather Roundup
Issued by NWS

Home | Current Version | Previous Version | Graphics & Text | Print | Product List | Glossary On
Versions: 1 2 3 4 5 6 7 8 9 10 11 12 13 14 15 16 17 18 19 20 21 22 23 24 25 26 27 28 29 30 31 32 33 34 35 36 37 38 39 40 41 42 43 44 45 46 47 48 49 50
000
ASUS43 KMKX 300900
RWRWI

WISCONSIN REGIONAL WEATHER ROUNDUP
NATIONAL WEATHER SERVICE MILWAUKEE/SULLIVAN WI
300 AM CST FRI JAN 30 2015

NOTE: "FAIR" INDICATES FEW OR NO CLOUDS BELOW 12,000 FEET WITH NO
SIGNIFICANT WEATHER AND/OR OBSTRUCTIONS TO VISIBILITY.

WIZ001-002-006>008-014>016-023>028-301000-
NORTHWEST WISCONSIN

CITY           SKY/WX    TMP DP  RH WIND       PRES   REMARKS
SUPERIOR ARPT  PTCLDY     3  -2  81 W3        30.56S
ASHLAND        CLOUDY    13   5  70 N3        30.50F
HAYWARD        CLOUDY     5  -1  76 VRB3      30.49S
SIREN          PTCLDY     3  -2  80 NW5       30.54F WCI  -6
CUMBERLAND     PTCLDY     3   0  85 NW8       30.50F WCI -10
RICE LAKE      PTCLDY     5   0  78 CALM      30.53S
CHETEK         PTCLDY     4   0  80 CALM      30.53R
LADYSMITH      CLOUDY    10   4  76 NW6       30.49R WCI   0
EAU CLAIRE     NOT AVBL
MENOMONIE      PTCLDY    10   2  71 NW8       30.55R WCI  -2
NEW RICHMOND   PTCLDY     7   2  80 N3        30.54S
OSCEOLA        PTCLDY     9   4  78 CALM      30.58S
$$

WIZ003>005-009-010-017-018-301000-
NORTH CENTRAL WISCONSIN

CITY           SKY/WX    TMP DP  RH WIND       PRES   REMARKS
MANITOWISH WTR CLOUDY    10   4  75 N7        30.39R WCI   0
ARBOR VITAE    CLOUDY    14   7  74 N7        30.38S WCI   4
WOODRUFF       CLOUDY    14   7  74 N7        30.38S WCI   4
RHINELANDER    CLOUDY    11   2  67 NW9G20    30.39R WCI  -2
EAGLE RIVER    FLURRIES  11   3  70 NW12      30.37R WCI  -4
LAND O LAKES   CLOUDY    11   5  76 N8        30.38R WCI  -1
PHILLIPS       CLOUDY    11   3  70 NW5       30.42R WCI   3
TOMAHAWK       CLOUDY    13   5  70 N9        30.41R WCI   1
MEDFORD        CLOUDY    13   5  70 NW7       30.41S WCI   2
MERRILL        CLOUDY    15   5  65 N8        30.41S WCI   4
$$

WIZ029-030-035-036-043>047-301000-
CENTRAL WISCONSIN

CITY           SKY/WX    TMP DP  RH WIND       PRES   REMARKS
WAUSAU         CLOUDY    15   4  61 NW9       30.41R WCI   3
MOSINEE        CLOUDY    14   7  73 NW12      30.42R WCI   0
MARSHFIELD     CLOUDY    13   4  67 NW9       30.43R WCI   1
STEVENS POINT  CLOUDY    15   4  63 CALM      30.42S
WAUPACA        CLOUDY    21   9  60 NW6       30.43R WCI  13
WAUTOMA        NOT AVBL
WISC RAPIDS    CLOUDY    17   6  62 NW7       30.45R WCI   8
CAMP DOUGLAS   NOT AVBL
$$

WIZ011>013-019>022-031-037>040-048>050-301000-
NORTHEAST WISCONSIN

CITY           SKY/WX    TMP DP  RH WIND       PRES   REMARKS
ANTIGO         CLOUDY    13   5  70 NW9       30.37S WCI   0
SHAWANO        CLOUDY    20   6  54 N10       30.42S WCI   9
OCONTO         CLOUDY    17   5  60 MISG      30.43R
STURGEON BAY   CLOUDY    16   3  57 N15       30.42R WCI   1
GREEN BAY      MOCLDY    17   5  59 NW7       30.42R WCI   8
MANITOWOC      NOT AVBL
APPLETON       CLOUDY    19  10  68 NW12      30.41S WCI   7
CLINTONVILLE   CLOUDY    19   5  53 N8        30.41S WCI   9
OSHKOSH        MOCLDY    19   6  57 NW10      30.42R WCI   7
$$

WIZ032>034-041-042-053>061-301000-
SOUTHWEST WISCONSIN

CITY           SKY/WX    TMP DP  RH WIND       PRES   REMARKS
LA CROSSE      NOT AVBL
SPARTA         PTCLDY    14   6  71 NW5       30.50R WCI   6
VIROQUA        CLEAR     14   7  75 N12       30.45R WCI   0
BOSCOBEL       CLEAR     19   8  62 N8        30.50R WCI   9
PRAIRIE DU CHI CLEAR     20  10  65 NW6       30.50R WCI  12
PLATTEVILLE    CLEAR     19  10  67 NW10G17   30.45R WCI   8
$$

WIZ056-057-062-063-064-067-068-301000-
SOUTH CENTRAL WISCONSIN

CITY           SKY/WX    TMP DP  RH WIND       PRES   REMARKS
REEDSBURG      CLEAR     16   8  68 NW5       30.45R WCI   9
BARABOO/DELLS  CLEAR     17   7  64 NW6       30.44R WCI   8
LONE ROCK      NOT AVBL
MINERAL POINT  CLOUDY    21  12  68 NW6       30.42R WCI  14
MADISON        CLEAR     18   8  65 NW8       30.43R WCI   8
MIDDLETON      CLEAR     20   9  62 NW8       30.43R WCI  10
WATERTOWN      CLOUDY    22  10  58 N12G17    30.40R WCI  10
MONROE         PTCLDY    21  12  68 N9G17     30.41R WCI  11
JANESVILLE     PTCLDY    25  14  63 N10G21    30.41R WCI  15
$$

WIZ051-052-058>065-066-070>072-301000-
SOUTHEAST WISCONSIN

CITY           SKY/WX    TMP DP  RH WIND       PRES   REMARKS
MILWAUKEE      PTCLDY    23  10  57 N16       30.40R WCI  10
WAUKESHA       CLOUDY    21   9  58 N9        30.40R WCI  11
MILWAUKEE/TIMM CLEAR     21  10  63 N12G17    30.41R WCI   9
RACINE         CLOUDY    24  11  57 NW10      30.41R WCI  14
BURLINGTON     CLOUDY    21   8  57 N5        30.40R WCI  15
KENOSHA        CLEAR     22  10  60 NW9       30.39R WCI  12
FOND DU LAC    PTCLDY    17   6  62 NW9       30.42R WCI   6
SHEBOYGAN      CLOUDY    20   9  62 N10       30.40R WCI   9
WEST BEND      CLEAR     19  10  68 NW8       30.39R WCI   9
JUNEAU         PTCLDY    18   7  61 NW10      30.42R WCI   6
$$

LSZ147-162-301000-
LAKE SUPERIOR

STATION/POSITION TIME  TEMP    WIND        PRES    WAVE
                       AIR SEA DIR/SP/G            HT/PER
                 (UTC) (F)     (DEG/KT/KT) (MB)    (FT/S)
DEVILS ISLAND    0800   12     310/  9/ 12 1034.9R
PORT WING        0840   14     280/ 11/ 14 1033.5R
SAXON HARBOR     0800   16      20/  6/ 14 1032.5R
$$

LMZ867-665-643>646-301000-
LAKE MICHIGAN

STATION/POSITION TIME  TEMP    WIND        PRES    WAVE
                       AIR SEA DIR/SP/G            HT/PER
                 (UTC) (F)     (DEG/KT/KT) (MB)    (FT/S)
NORTHPORT PIER   0808   17     320/ 22     1029.1R
SISTER BAY       0743   16     360/ 25/ 31   N/A
KEWAUNEE LAKESHO 0800   17     340/  9/ 15 1028.4R
SHEBOYGAN LAKESH 0800   21     350/ 21/ 23 1030.5R
PORT WASHINGTON  0840   23     330/  6/ 10 1030.1R
MILWAUKEE LAKESH 0800   25     340/ 10/ 15   N/A
KENOSHA   LAKESH 0800   26     350/ 14/ 21 1028.4R
$$

TC  - TEMPERATURE IN CELSIUS
VSB - VISIBILITY IN STATUTE MILES
WCI - WIND CHILL INDEX
HX  - HEAT INDEX



USA.gov is the U.S. government's official web portal to all federal, state and local government web resources and services.